Location: Recife
(8.0585°S, 34.8848°W)
Time: 13:25:37
(UTC-03:00)

Transit 4A - Pass Details

Date: 18 April 2026
Orbit: 861 x 980 km, 66.8° (Epoch: 12 May)

Event Time Altitude Azimuth Distance (km) Brightness Sun altitude
Rises 00:58:42 0° 319° (NW) 3,648 - -65.3°
Reaches altitude 10° 01:01:34 10° 309° (NW) 2,693 - -64.6°
Maximum altitude 01:07:00 31° 249° (WSW) 1,610 - -63.2°
Drops below altitude 10° 01:12:22 10° 188° (S) 2,643 - -61.9°
Sets 01:15:11 0° 178° (S) 3,569 - -61.2°
